TimePDT,TemperatureF,Dew PointF,Humidity,Sea Level PressureIn,VisibilityMPH,Wind Direction,Wind SpeedMPH,Gust SpeedMPH,PrecipitationIn,Events,Conditions,WindDirDegrees,DateUTC
12:54 AM,55.9,48.0,75,30.04,10.0,Calm,Calm,-,N/A,,Clear,0,2013-06-17 07:54:00
1:54 AM,52.0,46.0,80,30.04,10.0,Calm,Calm,-,N/A,,Clear,0,2013-06-17 08:54:00
2:54 AM,52.0,46.0,80,30.03,10.0,Calm,Calm,-,N/A,,Clear,0,2013-06-17 09:54:00
3:54 AM,48.9,45.0,86,30.03,10.0,Calm,Calm,-,N/A,,Clear,0,2013-06-17 10:54:00
4:54 AM,46.9,44.1,90,30.03,10.0,SSW,4.6,-,N/A,,Clear,200,2013-06-17 11:54:00
5:54 AM,51.1,46.9,86,30.04,10.0,SW,3.5,-,N/A,,Clear,230,2013-06-17 12:54:00
6:54 AM,53.1,48.9,86,30.05,10.0,WSW,3.5,-,N/A,,Clear,240,2013-06-17 13:54:00
7:54 AM,57.9,48.0,70,30.05,10.0,West,9.2,-,N/A,,Clear,280,2013-06-17 14:54:00
8:54 AM,64.0,48.0,56,30.05,10.0,West,9.2,-,N/A,,Clear,260,2013-06-17 15:54:00
9:54 AM,70.0,46.9,44,30.04,10.0,SW,12.7,-,N/A,,Clear,230,2013-06-17 16:54:00
10:54 AM,75.9,46.9,36,30.03,10.0,West,13.8,-,N/A,,Clear,260,2013-06-17 17:54:00
11:54 AM,78.1,48.9,36,30.03,10.0,West,15.0,-,N/A,,Clear,260,2013-06-17 18:54:00
12:54 PM,78.1,52.0,40,30.02,10.0,West,21.9,25.3,N/A,,Clear,270,2013-06-17 19:54:00
1:54 PM,79.0,53.1,40,30.02,10.0,West,19.6,27.6,N/A,,Clear,260,2013-06-17 20:54:00
2:54 PM,78.1,53.1,42,30.01,10.0,West,25.3,31.1,N/A,,Clear,270,2013-06-17 21:54:00
3:54 PM,75.9,52.0,43,30.00,10.0,West,23.0,31.1,N/A,,Clear,260,2013-06-17 22:54:00
4:54 PM,75.0,52.0,44,30.00,10.0,West,19.6,27.6,N/A,,Clear,260,2013-06-17 23:54:00
5:54 PM,73.0,52.0,48,29.99,10.0,West,15.0,23.0,N/A,,Clear,260,2013-06-18 00:54:00
6:54 PM,68.0,52.0,56,29.99,10.0,WSW,13.8,-,N/A,,Clear,250,2013-06-18 01:54:00
7:54 PM,63.0,53.1,70,29.99,10.0,WSW,12.7,-,N/A,,Clear,240,2013-06-18 02:54:00
8:54 PM,60.1,52.0,75,29.98,10.0,SW,15.0,-,N/A,,Clear,230,2013-06-18 03:54:00
9:54 PM,59.0,52.0,78,29.98,10.0,WSW,18.4,-,N/A,,Clear,250,2013-06-18 04:54:00
10:54 PM,57.0,52.0,83,29.99,10.0,West,13.8,-,N/A,,Clear,260,2013-06-18 05:54:00
11:54 PM,55.9,52.0,87,29.99,10.0,WSW,12.7,-,N/A,,Clear,250,2013-06-18 06:54:00